Location: Epalinges
(46.5518°N, 6.6683°E)
Time: 02:50:11
(UTC+00:00)

Cosmos 1766 Rocket - Pass Details

Date: 20 June 2021
Orbit: 604 x 634 km, 82.5° (Epoch: 04 August)

Event Time Altitude Azimuth Distance (km) Brightness Sun altitude
Exits shadow 02:59:08 - 216° (SW) 2,225 5.7 -6.2°
Reaches altitude 10° 02:59:44 10° 219° (SW) 2,004 5.5 -6.1°
Maximum altitude 03:03:48 35° 286° (WNW) 1,026 4.5 -5.6°
Drops below altitude 10° 03:07:57 10° 353° (N) 2,028 6.7 -5.1°
Sets 03:10:22 0° 2° (N) 2,943 7.8 -4.8°
